• En España
  • Lista de países
  • Para 7 días
  • Temperatura del agua
  • Mapa Satelital
  • El tiempo en el mapa
  • Informadores
  • user-avatar
    Iniciar sesión

    Tiempo cada hora Algiers

    Hoy, 16 Diciembre, Sábado

    Tiempo Temperatura Precipitaciones Viento Presión Humedad
    00:00 +14°C° 0 mm 6 mps 745 mmHg 85%
    01:00 +13°C° 0,9 mm 5 mps 745 mmHg 89%
    02:00 +13°C° 0,9 mm 4 mps 745 mmHg 92%
    03:00 +13°C° 0,9 mm 3 mps 745 mmHg 96%
    04:00 +12°C° 0,4 mm 3 mps 745 mmHg 94%
    05:00 +12°C° 0,4 mm 3 mps 745 mmHg 93%
    06:00 +12°C° 0 mm 4 mps 746 mmHg 90%
    07:00 +12°C° 0,1 mm 4 mps 746 mmHg 87%
    08:00 +12°C° 0,1 mm 4 mps 747 mmHg 83%
    09:00 +12°C° 0,1 mm 4 mps 747 mmHg 79%
    10:00 +13°C° 0,1 mm 4 mps 748 mmHg 74%
    11:00 +13°C° 0,1 mm 4 mps 748 mmHg 68%
    12:00 +14°C° 0,1 mm 4 mps 749 mmHg 62%
    13:00 +14°C° 0,1 mm 5 mps 749 mmHg 62%
    14:00 +13°C° 0,1 mm 5 mps 749 mmHg 61%
    15:00 +13°C° 0,1 mm 5 mps 749 mmHg 61%
    16:00 +12°C° 0,2 mm 4 mps 750 mmHg 65%
    17:00 +11°C° 0,2 mm 3 mps 751 mmHg 70%
    18:00 +10°C° 0,2 mm 3 mps 751 mmHg 74%
    19:00 +10°C° 0,4 mm 2 mps 752 mmHg 76%
    20:00 +10°C° 0,4 mm 2 mps 752 mmHg 78%
    21:00 +9°C° 0,4 mm 2 mps 753 mmHg 80%
    22:00 +9°C° 0,4 mm 2 mps 753 mmHg 81%
    23:00 +9°C° 0,4 mm 2 mps 753 mmHg 81%

    Mañana, 17 Diciembre, Domingo

    Tiempo Temperatura Precipitaciones Viento Presión Humedad
    00:00 +9°C° 0,4 mm 2 mps 753 mmHg 82%
    01:00 +9°C° 0,4 mm 2 mps 753 mmHg 82%
    02:00 +9°C° 0,4 mm 2 mps 754 mmHg 83%
    03:00 +9°C° 0,4 mm 2 mps 754 mmHg 83%
    04:00 +9°C° 0,6 mm 2 mps 754 mmHg 84%
    05:00 +9°C° 0,6 mm 2 mps 754 mmHg 84%
    06:00 +9°C° 0,6 mm 2 mps 754 mmHg 85%
    07:00 +9°C° 0,4 mm 2 mps 755 mmHg 84%
    08:00 +9°C° 0,4 mm 2 mps 755 mmHg 82%
    09:00 +11°C° 0,4 mm 1 mps 756 mmHg 81%
    10:00 +12°C° 0,3 mm 2 mps 756 mmHg 75%
    11:00 +12°C° 0,3 mm 2 mps 756 mmHg 69%
    12:00 +13°C° 0,3 mm 2 mps 756 mmHg 63%
    13:00 +12°C° 0,3 mm 3 mps 756 mmHg 63%
    14:00 +12°C° 0,3 mm 3 mps 756 mmHg 63%
    15:00 +12°C° 0,3 mm 4 mps 756 mmHg 63%
    16:00 +11°C° 0,3 mm 4 mps 757 mmHg 70%
    17:00 +10°C° 0,3 mm 4 mps 757 mmHg 77%
    18:00 +8°C° 0,3 mm 4 mps 758 mmHg 84%
    19:00 +8°C° 0,2 mm 4 mps 758 mmHg 84%
    20:00 +7°C° 0,2 mm 4 mps 759 mmHg 84%
    21:00 +7°C° 0,2 mm 4 mps 759 mmHg 84%
    22:00 +8°C° 0 mm 3 mps 759 mmHg 84%
    23:00 +7°C° 0 mm 3 mps 759 mmHg 85%

    Pasado mañana, 18 Diciembre, Lunes

    Tiempo Temperatura Precipitaciones Viento Presión Humedad
    00:00 +7°C° 0 mm 2 mps 760 mmHg 85%
    01:00 +7°C° 0 mm 2 mps 760 mmHg 85%
    02:00 +7°C° 0 mm 2 mps 760 mmHg 85%
    03:00 +6°C° 0 mm 2 mps 760 mmHg 85%
    04:00 +7°C° 0 mm 1 mps 760 mmHg 84%
    05:00 +7°C° 0 mm 1 mps 760 mmHg 83%
    06:00 +7°C° 0 mm 1 mps 760 mmHg 82%
    07:00 +8°C° 0 mm 1 mps 760 mmHg 77%
    08:00 +8°C° 0 mm 2 mps 761 mmHg 71%
    09:00 +9°C° 0 mm 2 mps 761 mmHg 66%
    10:00 +10°C° 0 mm 2 mps 761 mmHg 61%
    11:00 +12°C° 0 mm 2 mps 760 mmHg 56%
    12:00 +13°C° 0 mm 2 mps 760 mmHg 52%
    13:00 +13°C° 0 mm 2 mps 760 mmHg 53%
    14:00 +13°C° 0 mm 2 mps 759 mmHg 54%
    15:00 +12°C° 0 mm 3 mps 759 mmHg 55%
    16:00 +12°C° 0 mm 2 mps 759 mmHg 60%
    17:00 +10°C° 0 mm 2 mps 759 mmHg 66%
    18:00 +8°C° 0 mm 2 mps 759 mmHg 71%
    19:00 +8°C° 0 mm 2 mps 759 mmHg 72%
    20:00 +8°C° 0 mm 2 mps 759 mmHg 73%
    21:00 +8°C° 0 mm 2 mps 759 mmHg 74%
    22:00 +7°C° 0 mm 3 mps 759 mmHg 75%
    23:00 +7°C° 0 mm 3 mps 758 mmHg 75%

    19 Diciembre, Martes

    Tiempo Temperatura Precipitaciones Viento Presión Humedad
    00:00 +7°C° 0 mm 3 mps 758 mmHg 75%
    01:00 +6°C° 0 mm 4 mps 757 mmHg 74%
    02:00 +6°C° 0 mm 4 mps 757 mmHg 73%
    03:00 +6°C° 0 mm 4 mps 757 mmHg 71%
    04:00 +6°C° 0,1 mm 4 mps 756 mmHg 69%
    05:00 +6°C° 0,1 mm 4 mps 756 mmHg 67%
    06:00 +6°C° 0,1 mm 4 mps 756 mmHg 65%
    07:00 +7°C° 0,2 mm 4 mps 757 mmHg 62%
    08:00 +8°C° 0,2 mm 5 mps 757 mmHg 59%
    09:00 +8°C° 0,2 mm 5 mps 757 mmHg 56%
    10:00 +9°C° 1,1 mm 5 mps 757 mmHg 61%
    11:00 +10°C° 1,1 mm 4 mps 757 mmHg 65%
    12:00 +11°C° 1,1 mm 4 mps 756 mmHg 69%
    13:00 +10°C° 0,4 mm 4 mps 756 mmHg 73%
    14:00 +10°C° 0,4 mm 4 mps 756 mmHg 77%
    15:00 +10°C° 0,4 mm 4 mps 755 mmHg 80%
    16:00 +9°C° 0,7 mm 5 mps 756 mmHg 83%
    17:00 +9°C° 0,7 mm 5 mps 756 mmHg 86%
    18:00 +8°C° 0,7 mm 6 mps 756 mmHg 89%
    19:00 +8°C° 0,8 mm 6 mps 756 mmHg 89%
    20:00 +8°C° 0,8 mm 6 mps 756 mmHg 89%
    21:00 +9°C° 0,8 mm 7 mps 757 mmHg 90%
    22:00 +9°C° 0,8 mm 7 mps 757 mmHg 90%
    23:00 +9°C° 0,8 mm 7 mps 757 mmHg 91%

    20 Diciembre, Miércoles

    Tiempo Temperatura Precipitaciones Viento Presión Humedad
    00:00 +9°C° 0,8 mm 7 mps 757 mmHg 91%
    01:00 +8°C° 0,3 mm 6 mps 757 mmHg 91%
    02:00 +8°C° 0,3 mm 6 mps 757 mmHg 92%
    03:00 +8°C° 0,3 mm 6 mps 757 mmHg 92%
    04:00 +8°C° 0,1 mm 6 mps 758 mmHg 92%
    05:00 +7°C° 0,1 mm 5 mps 758 mmHg 92%
    06:00 +7°C° 0,1 mm 5 mps 759 mmHg 92%
    07:00 +8°C° 0,2 mm 5 mps 759 mmHg 87%
    08:00 +9°C° 0,2 mm 5 mps 760 mmHg 83%
    09:00 +10°C° 0,2 mm 5 mps 760 mmHg 78%
    10:00 +12°C° 0,1 mm 5 mps 760 mmHg 75%
    11:00 +12°C° 0,1 mm 5 mps 760 mmHg 71%
    12:00 +13°C° 0,1 mm 6 mps 760 mmHg 68%
    13:00 +13°C° 0,1 mm 6 mps 760 mmHg 70%
    14:00 +13°C° 0,1 mm 6 mps 760 mmHg 72%
    15:00 +12°C° 0,1 mm 7 mps 760 mmHg 75%
    16:00 +11°C° 0,1 mm 6 mps 760 mmHg 78%
    17:00 +11°C° 0,1 mm 6 mps 761 mmHg 81%
    18:00 +10°C° 0,1 mm 6 mps 761 mmHg 84%
    19:00 +9°C° 0,1 mm 6 mps 762 mmHg 86%
    20:00 +9°C° 0,1 mm 5 mps 762 mmHg 87%
    21:00 +8°C° 0,1 mm 5 mps 762 mmHg 88%
    22:00 +8°C° 0 mm 5 mps 762 mmHg 88%
    23:00 +8°C° 0 mm 4 mps 762 mmHg 88%

    21 Diciembre, Jueves

    Tiempo Temperatura Precipitaciones Viento Presión Humedad
    00:00 +7°C° 0 mm 4 mps 762 mmHg 88%
    01:00 +7°C° 0,1 mm 4 mps 762 mmHg 89%
    02:00 +7°C° 0,1 mm 4 mps 762 mmHg 89%
    03:00 +7°C° 0,1 mm 4 mps 762 mmHg 89%
    04:00 +7°C° 0,1 mm 4 mps 762 mmHg 89%
    05:00 +7°C° 0,1 mm 4 mps 762 mmHg 89%
    06:00 +6°C° 0,1 mm 4 mps 762 mmHg 90%
    07:00 +7°C° 0,1 mm 4 mps 762 mmHg 86%
    08:00 +8°C° 0,1 mm 4 mps 763 mmHg 82%
    09:00 +10°C° 0,1 mm 4 mps 763 mmHg 78%
    10:00 +10°C° 0 mm 5 mps 762 mmHg 72%
    11:00 +11°C° 0 mm 6 mps 762 mmHg 66%
    12:00 +13°C° 0 mm 6 mps 762 mmHg 60%
    13:00 +13°C° 0 mm 6 mps 761 mmHg 61%
    14:00 +12°C° 0 mm 7 mps 761 mmHg 62%
    15:00 +12°C° 0 mm 7 mps 761 mmHg 63%
    16:00 +11°C° 0 mm 7 mps 761 mmHg 69%
    17:00 +10°C° 0 mm 6 mps 761 mmHg 75%
    18:00 +9°C° 0 mm 6 mps 761 mmHg 81%
    19:00 +8°C° 0 mm 6 mps 761 mmHg 82%
    20:00 +8°C° 0 mm 6 mps 762 mmHg 83%
    21:00 +8°C° 0 mm 6 mps 762 mmHg 85%
    22:00 +8°C° 0 mm 5 mps 761 mmHg 84%
    23:00 +8°C° 0 mm 5 mps 761 mmHg 84%
    Mostrar más